DW6650 Weather Reports


Display with metric or nautical units.
time (UTC)temp
F
wind
direction
speed
MPH
gust
MPH
rain 1hr
in
rain 24hr
in
rain mn
in
humidity
%
barometer
mb
20260510010516 67 259 0.0 0.0 0.00 0.00 0.00 89 1014.0
20260510010016 67 259 0.0 0.0 0.00 0.00 0.00 89 1014.0
20260510005516 67 259 0.0 0.0 0.00 0.00 0.00 88 1014.0
20260510005016 68 259 0.0 0.0 0.00 0.00 0.00 88 1013.9
20260510004516 68 259 0.0 0.0 0.00 0.00 0.00 88 1013.7
20260510004016 68 259 0.0 0.0 0.00 0.00 0.00 87 1013.7
20260510003516 69 259 0.0 0.0 0.00 0.00 0.00 87 1013.8
20260510003038 69 259 0.0 0.0 0.00 0.00 0.00 86 1013.7
20260510002518 69 259 0.0 0.0 0.00 0.00 0.00 86 1013.6
20260510002017 69 259 0.0 0.0 0.00 0.00 0.00 85 1013.4
20260510001538 69 259 0.0 0.0 0.00 0.00 0.00 85 1013.4
20260510001017 70 259 0.0 0.0 0.00 0.00 0.00 85 1013.4
20260510000557 70 259 0.0 0.0 0.00 0.00 0.00 84 1013.4
20260510000017 70 259 0.0 0.0 0.00 0.00 0.00 83 1013.5
20260509235517 70 261 0.0 0.0 0.00 0.00 0.00 83 1013.4
20260509235037 70 261 0.0 0.0 0.00 0.00 0.00 82 1013.3
20260509234518 71 261 0.0 0.0 0.00 0.00 0.00 82 1013.3
20260509234017 71 261 0.0 0.0 0.00 0.00 0.00 82 1013.3
20260509233517 71 270 0.0 1.0 0.00 0.00 0.00 81 1013.1
20260509233057 71 261 0.0 0.0 0.00 0.00 0.00 81 1013.1
20260509232537 71 261 0.0 0.0 0.00 0.00 0.00 81 1013.1
20260509232017 71 261 0.0 0.0 0.00 0.00 0.00 81 1013.1
20260509231517 71 270 0.0 1.0 0.00 0.00 0.00 81 1013.0
20260509231017 71 270 0.0 1.0 0.00 0.00 0.00 81 1013.2
20260509230537 71 270 0.0 1.0 0.00 0.00 0.00 80 1013.2
20260509230037 72 219 0.0 0.0 0.00 0.00 0.00 80 1013.1
20260509225517 72 225 0.0 1.0 0.00 0.00 0.00 80 1013.1
20260509225058 72 225 0.0 2.0 0.00 0.00 0.00 79 1013.0
20260509224517 72 248 0.0 1.0 0.00 0.00 0.00 79 1012.9
20260509224017 72 248 0.0 2.0 0.00 0.00 0.00 79 1012.8
20260509223517 72 248 0.0 1.0 0.00 0.00 0.00 80 1012.7
20260509223057 72 213 0.0 0.0 0.00 0.00 0.00 79 1012.8
20260509222517 72 213 0.0 0.0 0.00 0.00 0.00 79 1012.9
20260509222017 72 225 0.0 1.0 0.00 0.00 0.00 79 1012.9
20260509221538 72 225 1.0 2.0 0.00 0.00 0.00 79 1012.8
20260509221118 72 225 0.0 2.0 0.00 0.00 0.00 80 1012.7
20260509220517 72 219 0.0 0.0 0.00 0.00 0.00 80 1012.6
20260509220017 72 225 0.0 1.0 0.00 0.00 0.00 80 1012.7
20260509215518 72 225 0.0 1.0 0.00 0.00 0.00 82 1012.8
20260509215017 72 225 0.0 2.0 0.00 0.00 0.00 81 1012.7
20260509214517 72 225 0.0 1.0 0.00 0.00 0.00 81 1012.6
20260509214017 72 225 0.0 1.0 0.00 0.00 0.00 81 1012.7
20260509213517 72 225 0.0 2.0 0.00 0.00 0.00 81 1012.7
20260509213017 72 203 0.0 2.0 0.00 0.00 0.00 81 1012.6
20260509212537 72 203 0.0 1.0 0.00 0.00 0.00 80 1012.6
20260509212017 72 203 0.0 2.0 0.00 0.00 0.00 80 1012.7
20260509211517 72 180 0.0 2.0 0.00 0.00 0.00 80 1012.8
20260509211018 72 158 0.0 1.0 0.00 0.00 0.00 81 1012.7
20260509210517 72 203 0.0 2.0 0.00 0.00 0.00 80 1012.7
20260509210017 73 203 0.0 2.0 0.00 0.00 0.00 80 1012.6
20260509205537 73 180 0.0 1.0 0.00 0.00 0.00 80 1012.5
20260509205037 73 180 0.0 1.0 0.00 0.00 0.00 80 1012.5
20260509204537 73 180 0.0 1.0 0.00 0.00 0.00 79 1012.4
20260509204017 73 180 0.0 1.0 0.00 0.00 0.00 79 1012.5
20260509203537 74 135 0.0 1.0 0.00 0.00 0.00 80 1012.6
20260509203017 74 203 0.0 1.0 0.00 0.00 0.00 79 1012.6
20260509202517 74 203 0.0 2.0 0.00 0.00 0.00 77 1012.6
20260509202017 74 203 0.0 2.0 0.00 0.00 0.00 77 1012.5
20260509201517 74 180 0.0 2.0 0.00 0.00 0.00 78 1012.6
20260509201017 74 113 0.0 1.0 0.00 0.00 0.00 78 1012.6
20260509200517 74 248 0.0 1.0 0.00 0.00 0.00 78 1012.6
20260509200017 73 248 0.0 2.0 0.00 0.00 0.00 78 1012.7
20260509195517 73 248 0.0 1.0 0.00 0.00 0.00 78 1012.8
20260509195017 73 257 0.0 0.0 0.00 0.00 0.00 80 1012.7
20260509194517 73 257 0.0 0.0 0.00 0.00 0.00 80 1012.8
20260509194039 73 257 0.0 0.0 0.00 0.00 0.00 79 1013.0
20260509193537 73 248 0.0 1.0 0.00 0.00 0.00 80 1013.1
20260509193017 73 225 0.0 1.0 0.00 0.00 0.00 79 1013.1
20260509192537 73 225 2.0 5.0 0.00 0.00 0.00 79 1013.2
20260509192017 73 225 0.0 2.0 0.00 0.00 0.00 82 1013.2
20260509191517 72 203 0.0 1.0 0.00 0.00 0.00 81 1013.1
20260509191017 72 270 1.0 4.0 0.00 0.00 0.00 83 1013.2
20260509190517 72 225 0.0 2.0 0.00 0.00 0.00 82 1013.2
20260509190037 72 225 0.0 1.0 0.00 0.00 0.00 83 1013.1
20260509185517 72 225 1.0 5.0 0.00 0.00 0.00 84 1013.3
20260509185036 71 203 1.0 2.0 0.00 0.00 0.00 84 1013.4
20260509184536 71 194 0.0 0.0 0.00 0.00 0.00 86 1013.4
20260509184016 70 225 0.0 3.0 0.00 0.00 0.00 87 1013.5
20260509183537 70 225 1.0 3.0 0.00 0.00 0.00 87 1013.4
20260509183016 69 246 0.0 0.0 0.00 0.00 0.00 88 1013.6
20260509182517 69 248 0.0 2.0 0.00 0.00 0.00 89 1013.9
20260509182017 69 225 2.0 7.0 0.00 0.00 0.00 88 1013.9
20260509181516 69 225 1.0 6.0 0.00 0.00 0.00 88 1014.0
20260509181017 69 225 0.0 1.0 0.00 0.00 0.00 89 1013.7
20260509180536 69 248 0.0 1.0 0.00 0.00 0.00 89 1014.1
20260509180017 69 248 1.0 2.0 0.00 0.00 0.00 89 1014.0
20260509175516 69 135 0.0 1.0 0.00 0.00 0.00 89 1014.0
20260509175037 69 225 1.0 3.0 0.00 0.00 0.00 89 1014.1
20260509174517 69 225 0.0 2.0 0.00 0.00 0.00 88 1014.3
20260509174016 69 225 0.0 2.0 0.00 0.00 0.00 88 1014.1
20260509173516 69 225 0.0 3.0 0.00 0.00 0.00 88 1014.1
20260509173037 69 180 0.0 1.0 0.00 0.00 0.00 88 1014.2
20260509172516 69 203 1.0 3.0 0.00 0.00 0.00 87 1014.1
20260509172016 70 225 2.0 5.0 0.00 0.00 0.00 87 1014.3
20260509171517 70 225 1.0 4.0 0.00 0.00 0.00 88 1014.1
20260509171016 69 248 3.0 7.0 0.00 0.00 0.00 87 1014.0
20260509170537 69 248 2.0 9.0 0.00 0.00 0.00 87 1013.8
20260509170016 69 248 1.0 5.0 0.00 0.00 0.00 90 1013.9
20260509165516 69 225 1.0 2.0 0.00 0.00 0.00 90 1013.8
20260509165016 68 225 2.0 7.0 0.00 0.00 0.00 90 1013.7
20260509164516 68 225 2.0 7.0 0.00 0.00 0.00 90 1013.9
20260509164036 68 225 2.0 7.0 0.00 0.00 0.00 89 1013.7
20260509163536 68 225 2.0 7.0 0.00 0.00 0.00 90 1013.7
20260509163016 68 225 2.0 8.0 0.00 0.00 0.00 90 1013.7
20260509162536 68 248 3.0 8.0 0.00 0.00 0.00 91 1013.8
20260509162039 68 248 0.0 4.0 0.00 0.00 0.00 92 1013.6
20260509161516 68 248 0.0 2.0 0.00 0.00 0.00 92 1013.4
20260509161016 67 225 0.0 1.0 0.00 0.00 0.00 93 1013.3
20260509160516 67 225 0.0 2.0 0.00 0.00 0.00 93 1013.3
20260509160016 67 225 1.0 5.0 0.00 0.00 0.00 94 1013.5
20260509155516 66 225 1.0 6.0 0.00 0.00 0.00 94 1013.3
20260509155016 66 225 1.0 4.0 0.00 0.00 0.00 94 1013.1
20260509154516 66 269 0.0 0.0 0.00 0.00 0.00 95 1012.6
20260509154017 65 248 1.0 3.0 0.00 0.00 0.00 94 1012.7
20260509153516 65 248 1.0 5.0 0.00 0.00 0.00 95 1013.1
20260509153016 65 270 1.0 5.0 0.00 0.00 0.00 95 1013.6
20260509152516 65 248 0.0 1.0 0.00 0.00 0.00 95 1013.3
20260509152016 65 270 2.0 7.0 0.00 0.00 0.00 95 1013.9
20260509151516 65 248 0.0 2.0 0.00 0.00 0.00 95 1013.9
20260509151016 65 248 1.0 2.0 0.00 0.00 0.00 95 1014.1
20260509150516 65 248 1.0 5.0 0.00 0.00 0.00 96 1013.9
20260509150016 64 270 2.0 5.0 0.00 0.00 0.00 95 1013.8
20260509145516 64 225 0.0 1.0 0.00 0.00 0.00 95 1013.7
20260509145016 64 248 1.0 6.0 0.00 0.00 0.00 95 1013.8
20260509144516 64 248 2.0 6.0 0.00 0.00 0.00 95 1013.9
20260509144016 64 248 0.0 3.0 0.00 0.00 0.00 95 1013.4
20260509143516 64 248 2.0 5.0 0.00 0.00 0.00 95 1014.0
20260509143016 64 248 2.0 6.0 0.00 0.00 0.00 95 1014.2
20260509142516 64 248 2.0 6.0 0.00 0.00 0.00 95 1014.1
20260509142016 64 270 2.0 5.0 0.00 0.00 0.00 96 1014.3
20260509141536 64 270 1.0 5.0 0.00 0.00 0.00 96 1014.0
20260509141036 64 270 0.0 3.0 0.00 0.00 0.00 96 1014.2
20260509140516 64 248 1.0 5.0 0.00 0.00 0.00 96 1014.6
20260509140015 64 248 2.0 5.0 0.00 0.00 0.00 96 1014.4
20260509135516 64 270 0.0 4.0 0.00 0.00 0.00 96 1014.2
20260509135016 64 270 0.0 3.0 0.00 0.00 0.00 96 1014.1
20260509134515 64 270 0.0 3.0 0.00 0.00 0.00 96 1014.3
20260509134016 64 248 1.0 3.0 0.00 0.00 0.00 96 1014.6
20260509133515 63 248 0.0 2.0 0.00 0.00 0.00 96 1014.6
20260509133016 63 225 0.0 2.0 0.00 0.00 0.00 96 1014.3
20260509132516 63 248 1.0 2.0 0.00 0.00 0.00 96 1014.4
20260509132016 63 270 1.0 2.0 0.00 0.00 0.00 95 1014.4
20260509131516 63 270 0.0 1.0 0.00 0.00 0.00 95 1014.1
20260509131015 63 270 1.0 4.0 0.00 0.00 0.00 95 1014.2
20260509130516 63 258 0.0 4.0 0.00 0.00 0.00 95 1014.0
20260509130015 63 315 1.0 4.0 0.00 0.00 0.00 95 1014.3
20260509125516 63 293 0.0 2.0 0.00 0.00 0.00 95 1013.8
20260509125016 63 90 0.0 1.0 0.00 0.00 0.00 95 1013.8
20260509124516 63 84 0.0 0.0 0.00 0.00 0.00 94 1014.0
20260509124016 63 84 0.0 0.0 0.00 0.00 0.00 95 1014.1
20260509123517 63 90 0.0 1.0 0.00 0.00 0.00 95 1014.0
20260509123017 63 180 0.0 2.0 0.00 0.00 0.00 95 1013.9
20260509122517 63 221 0.0 0.0 0.00 0.00 0.00 95 1014.2
20260509122017 63 221 0.0 0.0 0.00 0.00 0.00 95 1013.9
20260509121517 63 221 0.0 0.0 0.00 0.00 0.00 95 1013.7
20260509121017 63 221 0.0 0.0 0.00 0.00 0.00 95 1013.7
20260509120517 63 225 0.0 1.0 0.00 0.00 0.00 95 1013.7
20260509120017 63 225 0.0 1.0 0.00 0.00 0.00 96 1013.7
20260509115517 62 225 0.0 2.0 0.00 0.00 0.00 96 1013.6
20260509115017 62 316 0.0 0.0 0.00 0.00 0.00 96 1013.6
20260509114517 62 316 0.0 0.0 0.00 0.00 0.00 96 1013.6
20260509114037 62 316 0.0 0.0 0.00 0.00 0.00 96 1013.6
20260509113517 62 316 0.0 0.0 0.00 0.00 0.00 96 1013.4
20260509113017 61 316 0.0 0.0 0.00 0.00 0.00 96 1013.5
20260509112537 61 318 0.0 0.0 0.00 0.00 0.00 96 1013.6
20260509112038 61 318 0.0 0.0 0.00 0.00 0.00 96 1013.7
20260509111538 61 318 0.0 0.0 0.00 0.00 0.00 96 1013.8
20260509111038 61 318 0.0 0.0 0.00 0.00 0.00 96 1013.6
20260509110517 61 318 0.0 0.0 0.00 0.00 0.00 96 1013.8
20260509110017 61 318 0.0 0.0 0.00 0.00 0.00 96 1013.7
20260509105517 61 315 0.0 1.0 0.00 0.00 0.00 96 1013.5
20260509105017 61 315 0.0 1.0 0.00 0.00 0.00 96 1013.6
20260509104517 61 59 0.0 0.0 0.00 0.00 0.00 96 1013.6
20260509104037 61 59 0.0 0.0 0.00 0.00 0.00 96 1013.6
20260509103537 61 59 0.0 0.0 0.00 0.00 0.00 96 1013.5
20260509103017 61 59 0.0 0.0 0.00 0.00 0.00 96 1013.5
20260509102537 61 59 0.0 0.0 0.00 0.00 0.00 96 1013.5
20260509102017 61 59 0.0 0.0 0.00 0.00 0.00 96 1013.5
20260509101518 61 59 0.0 0.0 0.00 0.00 0.00 96 1013.4
20260509101017 61 59 0.0 0.0 0.00 0.00 0.00 96 1013.4
20260509100517 61 59 0.0 0.0 0.00 0.00 0.00 96 1013.2
20260509100037 61 59 0.0 0.0 0.00 0.00 0.00 96 1013.2
20260509095537 60 59 0.0 0.0 0.00 0.00 0.00 96 1013.2
20260509095017 60 59 0.0 0.0 0.00 0.00 0.00 96 1013.2
20260509094517 60 59 0.0 0.0 0.00 0.00 0.00 96 1013.1
20260509094017 60 59 0.0 0.0 0.00 0.00 0.00 96 1013.1
20260509093537 60 59 0.0 0.0 0.00 0.00 0.00 96 1013.0
20260509093037 60 59 0.0 0.0 0.00 0.00 0.00 96 1012.8
20260509092517 60 59 0.0 0.0 0.00 0.00 0.00 96 1012.8
20260509092017 60 59 0.0 0.0 0.00 0.00 0.00 95 1012.7
20260509091557 60 59 0.0 0.0 0.00 0.00 0.00 96 1012.7
20260509091017 60 59 0.0 0.0 0.00 0.00 0.00 96 1012.7
20260509090517 60 59 0.0 0.0 0.00 0.00 0.00 96 1012.7
20260509090017 60 59 0.0 0.0 0.00 0.00 0.00 96 1012.6
20260509085517 60 59 0.0 0.0 0.00 0.00 0.00 96 1012.7
20260509085017 60 59 0.0 0.0 0.00 0.00 0.00 96 1012.8
20260509084517 60 68 0.0 1.0 0.00 0.00 0.00 96 1012.8
20260509084017 59 59 0.0 0.0 0.00 0.00 0.00 95 1012.8
20260509083517 59 59 0.0 0.0 0.00 0.00 0.00 95 1012.7
20260509083037 59 59 0.0 0.0 0.00 0.00 0.00 95 1012.6
20260509082517 59 59 0.0 0.0 0.00 0.00 0.00 95 1012.5
20260509082037 59 59 0.0 0.0 0.00 0.00 0.00 95 1012.5
20260509081517 60 59 0.0 0.0 0.00 0.00 0.00 95 1012.5
20260509081017 60 59 0.0 0.0 0.00 0.00 0.00 95 1012.6
20260509080537 60 59 0.0 0.0 0.00 0.00 0.00 94 1012.7
20260509080037 60 59 0.0 0.0 0.00 0.00 0.00 94 1012.7
20260509075517 60 59 0.0 0.0 0.00 0.00 0.00 94 1012.7
20260509075037 60 59 0.0 0.0 0.00 0.00 0.00 94 1012.7
20260509074537 60 59 0.0 0.0 0.00 0.00 0.00 94 1012.7
20260509074017 60 59 0.0 0.0 0.00 0.00 0.00 94 1012.8
20260509073517 60 59 0.0 0.0 0.00 0.00 0.00 94 1012.6
20260509073037 61 59 0.0 0.0 0.00 0.00 0.00 94 1012.5
20260509072537 61 59 0.0 0.0 0.00 0.00 0.00 93 1012.7
20260509072037 61 59 0.0 0.0 0.00 0.00 0.00 93 1012.9
20260509071517 61 59 0.0 0.0 0.00 0.00 0.00 93 1012.8
20260509071017 61 59 0.0 0.0 0.00 0.00 0.00 93 1012.9
20260509070517 61 59 0.0 0.0 0.00 0.00 0.00 93 1013.2
20260509070037 61 59 0.0 0.0 0.00 0.00 0.00 93 1013.3
20260509065518 62 59 0.0 0.0 0.00 0.00 0.00 93 1013.0
20260509065017 62 59 0.0 0.0 0.00 0.00 0.00 93 1013.2
20260509064516 62 59 0.0 0.0 0.00 0.00 0.00 93 1013.2
20260509064017 62 59 0.0 0.0 0.00 0.00 0.00 93 1013.3
20260509063536 62 45 0.0 1.0 0.00 0.00 0.00 93 1013.2
20260509063016 62 76 0.0 0.0 0.00 0.00 0.00 93 1013.3
20260509062516 62 76 0.0 0.0 0.00 0.00 0.00 93 1013.3
20260509062017 62 68 0.0 1.0 0.00 0.00 0.00 93 1013.3
20260509061516 62 69 0.0 0.0 0.00 0.00 0.00 94 1013.2
20260509061057 61 69 0.0 0.0 0.00 0.00 0.00 93 1013.5
20260509060537 61 68 0.0 1.0 0.00 0.00 0.00 93 1013.6
20260509060017 61 69 0.0 0.0 0.00 0.00 0.00 93 1013.8
20260509055517 61 68 0.0 2.0 0.00 0.00 0.00 93 1013.8
20260509055016 61 88 0.0 0.0 0.00 0.00 0.00 93 1014.1
20260509054516 61 88 0.0 0.0 0.00 0.00 0.00 93 1014.1
20260509054016 61 88 0.0 0.0 0.00 0.00 0.00 93 1013.9
20260509053537 61 88 0.0 0.0 0.00 0.00 0.00 92 1013.9
20260509053057 61 88 0.0 0.0 0.00 0.00 0.00 92 1014.0
20260509052516 61 88 0.0 0.0 0.00 0.00 0.00 92 1014.1
20260509052017 62 68 0.0 1.0 0.00 0.00 0.00 92 1014.1
20260509051516 62 135 0.0 1.0 0.00 0.00 0.00 92 1014.5
20260509051016 62 138 0.0 0.0 0.00 0.00 0.00 92 1014.6
20260509050516 62 138 0.0 0.0 0.00 0.00 0.00 92 1014.8
20260509050016 62 138 0.0 0.0 0.00 0.00 0.00 92 1014.9
20260509045516 62 138 0.0 0.0 0.00 0.00 0.00 92 1014.9
20260509045016 62 138 0.0 0.0 0.00 0.00 0.00 92 1014.9
20260509044516 62 138 0.0 0.0 0.00 0.00 0.00 92 1014.8
20260509044036 62 138 0.0 0.0 0.00 0.00 0.00 92 1014.7
20260509043516 62 138 0.0 0.0 0.00 0.00 0.00 92 1014.5
20260509043016 62 138 0.0 0.0 0.00 0.00 0.00 92 1014.4
20260509042556 62 135 0.0 1.0 0.00 0.00 0.00 92 1014.2
20260509042017 62 158 0.0 1.0 0.00 0.00 0.00 91 1014.5
20260509041516 62 158 0.0 1.0 0.00 0.00 0.00 91 1014.3
20260509041016 62 158 0.0 1.0 0.00 0.00 0.00 91 1014.2
20260509040516 62 168 0.0 0.0 0.00 0.00 0.00 91 1014.7
20260509040017 62 168 0.0 0.0 0.00 0.00 0.00 91 1014.6
20260509035517 62 168 0.0 0.0 0.00 0.00 0.00 91 1014.8
20260509035016 62 168 0.0 0.0 0.00 0.00 0.00 91 1014.7
20260509034537 62 168 0.0 0.0 0.00 0.00 0.00 91 1014.3
20260509034037 62 270 0.0 1.0 0.00 0.00 0.00 91 1014.2
20260509033537 62 273 0.0 0.0 0.00 0.00 0.00 91 1014.6
20260509033016 62 273 0.0 0.0 0.00 0.00 0.00 91 1014.8
20260509032537 62 273 0.0 0.0 0.00 0.00 0.00 90 1014.7
20260509032017 63 273 0.0 0.0 0.00 0.00 0.00 90 1014.8
20260509031536 63 273 0.0 0.0 0.00 0.00 0.00 90 1015.0
20260509031037 63 273 0.0 0.0 0.00 0.00 0.00 90 1015.5
20260509030539 63 273 0.0 0.0 0.00 0.00 0.00 90 1015.5
20260509030016 63 273 0.0 0.0 0.00 0.00 0.00 89 1015.1
20260509025516 63 273 0.0 0.0 0.00 0.00 0.00 89 1015.0
20260509025016 63 273 0.0 0.0 0.00 0.00 0.00 88 1015.2
20260509024516 63 273 0.0 0.0 0.00 0.00 0.00 88 1015.4
20260509024017 63 273 0.0 0.0 0.00 0.00 0.00 88 1015.5
20260509023516 63 273 0.0 0.0 0.00 0.00 0.00 88 1015.5
20260509023016 63 273 0.0 0.0 0.00 0.00 0.00 88 1015.4
20260509022518 63 273 0.0 0.0 0.00 0.00 0.00 88 1015.2
20260509022016 63 273 0.0 0.0 0.00 0.00 0.00 89 1015.0
20260509021516 64 273 0.0 0.0 0.00 0.00 0.00 88 1014.7
20260509021037 64 273 0.0 0.0 0.00 0.00 0.00 88 1014.6
20260509020516 64 273 0.0 0.0 0.00 0.00 0.00 88 1014.6
20260509020016 64 273 0.0 0.0 0.00 0.00 0.00 88 1014.5
20260509015516 64 273 0.0 0.0 0.00 0.00 0.00 88 1014.7
20260509015017 64 273 0.0 0.0 0.00 0.00 0.00 87 1014.6
20260509014536 64 273 0.0 0.0 0.00 0.00 0.00 87 1014.6
20260509014016 64 273 0.0 0.0 0.00 0.00 0.00 86 1014.7
20260509013518 64 273 0.0 0.0 0.00 0.00 0.00 86 1014.9
20260509013016 64 273 0.0 0.0 0.00 0.00 0.00 87 1015.1
20260509012556 64 273 0.0 0.0 0.00 0.00 0.00 85 1015.1
20260509012016 64 273 0.0 0.0 0.00 0.00 0.00 86 1015.1
20260509011516 64 273 0.0 0.0 0.00 0.00 0.00 84 1015.1
20260509011016 64 273 0.0 0.0 0.00 0.00 0.00 85 1015.2